Groton, CT

9:54 AM EDT on April 24, 2018 (GMT -0400)
Groton-New London

Weather History for KGON - April, 2013

Change the Weather History Date:

Monday, April 22, 2013

  Actual Average Record
Temperature  
Mean Temperature 42 °F -  
Max Temperature 52 °F 59 °F 79 °F (1960)
Min Temperature 34 °F 40 °F 31 °F (1975)
Degree Days  
Heating Degree Days 22    
Moisture  
Dew Point 31 °F    
Average Humidity 63    
Maximum Humidity 85    
Minimum Humidity 39    
Precipitation  
Precipitation 0.00 in - - ()
Sea Level Pressure  
Sea Level Pressure 30.63 in    
Wind  
Wind Speed 10 mph (ENE)    
Max Wind Speed 23 mph    
Max Gust Speed 34 mph    
Visibility 10 miles    
Events      
Averages and records for this station are not official NWS values.
T = Trace of Precipitation, MM = Missing Value Source: NWS Daily Summary

Daily Weather History Graph

Daily Weather History Graph

Search for Another Location

Airport or City:

Astronomy

Apr. 22, 2013 Rise Set
Actual Time 5:57 AM EDT 7:36 PM EDT
Civil Twilight 5:28 AM EDT 8:05 PM EDT
Nautical Twilight 4:53 AM EDT 8:41 PM EDT
Astronomical Twilight 4:15 AM EDT 9:18 PM EDT
Moon 4:20 PM EDT (4/22) 3:53 AM EDT (4/22)
Length of Visible Light 14h 37m
Length of Day
13h 38m
Waxing Gibbous, 87% of the Moon is Illuminated
Apr 22
Waxing Gibbous
Apr 25
Full
May 2
Last Quarter
May 9
New
May 18
First Quarter

Hourly Weather History & Observations

Time (EDT) Temp. Windchill Dew Point Humidity Pressure Visibility Wind Dir Wind Speed Gust Speed Precip Events Conditions
12:56 AM 39.0 °F 35.7 °F 32.0 °F 76% 30.66 in 10.0 mi NNE 4.6 mph - N/A   Clear
1:56 AM 36.0 °F 33.3 °F 30.0 °F 79% 30.66 in 10.0 mi NNE 3.5 mph - N/A   Clear
2:56 AM 34.0 °F 28.8 °F 30.0 °F 85% 30.66 in 10.0 mi North 5.8 mph - N/A   Clear
3:56 AM 35.1 °F 30.1 °F 30.0 °F 82% 30.66 in 10.0 mi North 5.8 mph - N/A   Clear
4:56 AM 34.0 °F 28.0 °F 30.0 °F 85% 30.65 in 10.0 mi North 6.9 mph - N/A   Clear
5:56 AM 34.0 °F 28.0 °F 30.0 °F 85% 30.67 in 10.0 mi North 6.9 mph - N/A   Clear
6:56 AM 37.0 °F 31.6 °F 30.9 °F 79% 30.68 in 10.0 mi North 6.9 mph - N/A   Clear
7:56 AM 43.0 °F 36.0 °F 28.9 °F 58% 30.68 in 10.0 mi NE 13.8 mph 18.4 mph N/A   Clear
8:56 AM 46.0 °F 40.6 °F 28.0 °F 50% 30.67 in 10.0 mi East 11.5 mph 24.2 mph N/A   Clear
9:56 AM 50.0 °F - 26.1 °F 39% 30.68 in 10.0 mi East 13.8 mph 24.2 mph N/A   Clear
10:56 AM 50.0 °F - 28.9 °F 44% 30.67 in 10.0 mi East 15.0 mph 28.8 mph N/A   Clear
11:56 AM 50.0 °F - 28.0 °F 43% 30.66 in 10.0 mi ESE 20.7 mph 34.5 mph N/A   Clear
12:56 PM 50.0 °F - 30.9 °F 48% 30.65 in 10.0 mi ESE 18.4 mph 28.8 mph N/A   Clear
1:56 PM 51.1 °F - 30.9 °F 46% 30.62 in 10.0 mi East 23.0 mph 28.8 mph N/A   Clear
2:56 PM 51.1 °F - 30.9 °F 46% 30.59 in 10.0 mi ESE 19.6 mph 26.5 mph N/A   Clear
3:56 PM 50.0 °F - 35.1 °F 57% 30.60 in 10.0 mi East 18.4 mph 26.5 mph N/A   Clear
4:56 PM 48.9 °F - 36.0 °F 61% 30.59 in 9.0 mi ESE 19.6 mph 29.9 mph N/A   Clear
5:56 PM 48.0 °F - 35.1 °F 61% 30.58 in 8.0 mi East 18.4 mph 26.5 mph N/A   Partly Cloudy
6:56 PM 46.0 °F 39.3 °F 33.1 °F 61% 30.58 in 9.0 mi East 16.1 mph 23.0 mph N/A   Partly Cloudy
7:56 PM 44.1 °F 36.8 °F 33.1 °F 65% 30.58 in 9.0 mi East 16.1 mph 21.9 mph N/A   Clear
8:56 PM 43.0 °F 36.4 °F 33.1 °F 68% 30.57 in 10.0 mi East 12.7 mph - N/A   Clear
9:56 PM 43.0 °F 35.7 °F 30.0 °F 60% 30.56 in 10.0 mi ENE 15.0 mph - N/A   Clear
10:56 PM 41.0 °F 33.9 °F 30.0 °F 65% 30.55 in 10.0 mi ENE 12.7 mph - N/A   Partly Cloudy
11:56 PM 41.0 °F 33.5 °F 30.0 °F 65% 30.54 in 9.0 mi NE 13.8 mph - N/A   Overcast